• En España
  • Lista de países
  • Para 7 días
  • Temperatura del agua
  • Mapa Satelital
  • El tiempo en el mapa
  • Informadores
  • user-avatar
    Iniciar sesión

    Tiempo cada hora Uige

    Hoy, 23 Mayo, Miércoles

    Tiempo Temperatura Precipitaciones Viento Presión Humedad
    00:00 +22°C° 0 mm 1 mps 692 mmHg 74%
    01:00 +19°C° 0 mm 0 mps 692 mmHg 74%
    02:00 +19°C° 0 mm 0 mps 691 mmHg 75%
    03:00 +19°C° 0 mm 0 mps 691 mmHg 75%
    04:00 +18°C° 0 mm 0 mps 691 mmHg 76%
    05:00 +18°C° 0 mm 0 mps 691 mmHg 76%
    06:00 +21°C° 0 mm 1 mps 692 mmHg 77%
    07:00 +21°C° 0 mm 1 mps 692 mmHg 77%
    08:00 +24°C° 0 mm 1 mps 693 mmHg 68%
    09:00 +26°C° 0 mm 1 mps 693 mmHg 59%
    10:00 +29°C° 0 mm 1 mps 694 mmHg 50%
    11:00 +30°C° 0 mm 1 mps 693 mmHg 47%
    12:00 +31°C° 0 mm 1 mps 693 mmHg 43%
    13:00 +32°C° 0 mm 1 mps 693 mmHg 39%
    14:00 +32°C° 0 mm 1 mps 692 mmHg 41%
    15:00 +32°C° 0 mm 1 mps 692 mmHg 43%
    16:00 +32°C° 0 mm 1 mps 691 mmHg 45%
    17:00 +29°C° 0 mm 1 mps 691 mmHg 50%
    18:00 +27°C° 0 mm 1 mps 691 mmHg 55%
    19:00 +25°C° 0 mm 1 mps 691 mmHg 61%
    20:00 +24°C° 0 mm 1 mps 691 mmHg 63%
    21:00 +23°C° 0 mm 1 mps 692 mmHg 65%
    22:00 +23°C° 0 mm 1 mps 692 mmHg 67%
    23:00 +20°C° 0 mm 0 mps 692 mmHg 68%

    Mañana, 24 Mayo, Jueves

    Tiempo Temperatura Precipitaciones Viento Presión Humedad
    00:00 +20°C° 0 mm 0 mps 692 mmHg 69%
    01:00 +19°C° 0 mm 0 mps 692 mmHg 70%
    02:00 +19°C° 0 mm 0 mps 691 mmHg 72%
    03:00 +20°C° 0 mm 1 mps 691 mmHg 74%
    04:00 +20°C° 0 mm 1 mps 691 mmHg 76%
    05:00 +20°C° 0 mm 1 mps 691 mmHg 77%
    06:00 +20°C° 0 mm 1 mps 691 mmHg 77%
    07:00 +21°C° 0 mm 1 mps 692 mmHg 78%
    08:00 +23°C° 0 mm 1 mps 692 mmHg 68%
    09:00 +26°C° 0 mm 1 mps 693 mmHg 59%
    10:00 +29°C° 0 mm 2 mps 694 mmHg 50%
    11:00 +30°C° 0 mm 2 mps 693 mmHg 45%
    12:00 +32°C° 0 mm 1 mps 693 mmHg 41%
    13:00 +33°C° 0 mm 1 mps 692 mmHg 37%
    14:00 +33°C° 0 mm 1 mps 692 mmHg 38%
    15:00 +32°C° 0 mm 1 mps 691 mmHg 39%
    16:00 +30°C° 0 mm 0 mps 690 mmHg 40%
    17:00 +28°C° 0 mm 0 mps 690 mmHg 47%
    18:00 +25°C° 0 mm 0 mps 690 mmHg 54%
    19:00 +22°C° 0 mm 0 mps 690 mmHg 62%
    20:00 +22°C° 0 mm 0 mps 691 mmHg 65%
    21:00 +21°C° 0 mm 0 mps 691 mmHg 68%
    22:00 +21°C° 0 mm 0 mps 692 mmHg 71%
    23:00 +20°C° 0 mm 0 mps 692 mmHg 75%

    Pasado mañana, 25 Mayo, Viernes

    Tiempo Temperatura Precipitaciones Viento Presión Humedad
    00:00 +22°C° 0 mm 1 mps 691 mmHg 78%
    01:00 +21°C° 0 mm 1 mps 691 mmHg 81%
    02:00 +21°C° 0 mm 1 mps 691 mmHg 83%
    03:00 +20°C° 0 mm 1 mps 690 mmHg 85%
    04:00 +20°C° 0 mm 1 mps 690 mmHg 88%
    05:00 +20°C° 0 mm 1 mps 690 mmHg 88%
    06:00 +20°C° 0 mm 1 mps 691 mmHg 88%
    07:00 +21°C° 0 mm 1 mps 691 mmHg 87%
    08:00 +23°C° 0 mm 1 mps 692 mmHg 76%
    09:00 +26°C° 0 mm 1 mps 692 mmHg 65%
    10:00 +29°C° 0 mm 1 mps 693 mmHg 54%
    11:00 +30°C° 0 mm 1 mps 692 mmHg 49%
    12:00 +32°C° 0 mm 1 mps 692 mmHg 45%
    13:00 +33°C° 0 mm 1 mps 691 mmHg 40%
    14:00 +33°C° 0 mm 1 mps 691 mmHg 40%
    15:00 +32°C° 0 mm 1 mps 690 mmHg 41%
    16:00 +32°C° 0 mm 1 mps 690 mmHg 41%
    17:00 +30°C° 0 mm 1 mps 690 mmHg 49%
    18:00 +27°C° 0 mm 1 mps 690 mmHg 57%
    19:00 +23°C° 0 mm 0 mps 690 mmHg 64%
    20:00 +22°C° 0 mm 0 mps 690 mmHg 68%
    21:00 +21°C° 0 mm 0 mps 691 mmHg 72%
    22:00 +20°C° 0 mm 0 mps 691 mmHg 75%
    23:00 +20°C° 0 mm 0 mps 691 mmHg 78%

    26 Mayo, Sábado

    Tiempo Temperatura Precipitaciones Viento Presión Humedad
    00:00 +20°C° 0 mm 0 mps 691 mmHg 80%
    01:00 +19°C° 0 mm 0 mps 690 mmHg 82%
    02:00 +21°C° 0 mm 1 mps 690 mmHg 84%
    03:00 +20°C° 0 mm 1 mps 690 mmHg 86%
    04:00 +20°C° 0 mm 1 mps 690 mmHg 88%
    05:00 +20°C° 0 mm 1 mps 691 mmHg 87%
    06:00 +21°C° 0 mm 1 mps 691 mmHg 86%
    07:00 +21°C° 0 mm 1 mps 691 mmHg 85%
    08:00 +24°C° 0 mm 1 mps 692 mmHg 73%
    09:00 +27°C° 0 mm 2 mps 692 mmHg 61%
    10:00 +30°C° 0 mm 2 mps 693 mmHg 50%
    11:00 +31°C° 0 mm 2 mps 692 mmHg 45%
    12:00 +32°C° 0 mm 2 mps 691 mmHg 41%
    13:00 +34°C° 0 mm 2 mps 691 mmHg 37%
    14:00 +34°C° 0 mm 2 mps 690 mmHg 38%
    15:00 +33°C° 0 mm 1 mps 690 mmHg 40%
    16:00 +32°C° 0 mm 1 mps 690 mmHg 41%
    17:00 +30°C° 0 mm 1 mps 690 mmHg 47%
    18:00 +28°C° 0 mm 1 mps 690 mmHg 53%
    19:00 +26°C° 0 mm 1 mps 690 mmHg 58%
    20:00 +25°C° 0 mm 1 mps 691 mmHg 60%
    21:00 +25°C° 0 mm 1 mps 691 mmHg 61%
    22:00 +24°C° 0 mm 1 mps 692 mmHg 62%
    23:00 +24°C° 0 mm 1 mps 691 mmHg 64%

    27 Mayo, Domingo

    Tiempo Temperatura Precipitaciones Viento Presión Humedad
    00:00 +21°C° 0 mm 0 mps 691 mmHg 65%
    01:00 +21°C° 0 mm 0 mps 691 mmHg 66%
    02:00 +20°C° 0 mm 0 mps 691 mmHg 69%
    03:00 +20°C° 0 mm 0 mps 691 mmHg 72%
    04:00 +19°C° 0 mm 0 mps 690 mmHg 75%
    05:00 +19°C° 0 mm 0 mps 691 mmHg 75%
    06:00 +21°C° 0 mm 1 mps 691 mmHg 75%
    07:00 +21°C° 0 mm 1 mps 692 mmHg 75%
    08:00 +24°C° 0 mm 1 mps 692 mmHg 65%
    09:00 +27°C° 0 mm 2 mps 693 mmHg 55%
    10:00 +30°C° 0 mm 2 mps 694 mmHg 45%
    11:00 +31°C° 0 mm 2 mps 693 mmHg 41%
    12:00 +32°C° 0 mm 2 mps 692 mmHg 38%
    13:00 +34°C° 0 mm 2 mps 692 mmHg 34%
    14:00 +32°C° 0 mm 2 mps 691 mmHg 37%
    15:00 +32°C° 0 mm 1 mps 691 mmHg 39%
    16:00 +31°C° 0 mm 1 mps 691 mmHg 42%
    17:00 +29°C° 0 mm 1 mps 691 mmHg 46%
    18:00 +27°C° 0 mm 1 mps 691 mmHg 50%
    19:00 +25°C° 0 mm 1 mps 691 mmHg 55%
    20:00 +25°C° 0 mm 1 mps 692 mmHg 56%
    21:00 +22°C° 0 mm 0 mps 692 mmHg 58%
    22:00 +22°C° 0 mm 0 mps 693 mmHg 60%
    23:00 +21°C° 0 mm 0 mps 692 mmHg 63%

    28 Mayo, Lunes

    Tiempo Temperatura Precipitaciones Viento Presión Humedad
    00:00 +21°C° 0 mm 0 mps 692 mmHg 66%
    01:00 +22°C° 0 mm 1 mps 692 mmHg 70%
    02:00 +22°C° 0 mm 1 mps 692 mmHg 75%
    03:00 +21°C° 0 mm 1 mps 692 mmHg 81%
    04:00 +20°C° 0 mm 1 mps 691 mmHg 86%
    05:00 +21°C° 0 mm 1 mps 692 mmHg 87%
    06:00 +21°C° 0 mm 1 mps 692 mmHg 89%
    07:00 +21°C° 0 mm 1 mps 693 mmHg 90%
    08:00 +24°C° 0 mm 1 mps 693 mmHg 77%
    09:00 +27°C° 0 mm 1 mps 694 mmHg 64%
    10:00 +30°C° 0 mm 1 mps 694 mmHg 52%
    11:00 +31°C° 0 mm 1 mps 694 mmHg 47%
    12:00 +33°C° 0 mm 1 mps 693 mmHg 42%
    13:00 +34°C° 0 mm 1 mps 693 mmHg 37%
    14:00 +33°C° 0 mm 1 mps 692 mmHg 41%
    15:00 +31°C° 0 mm 1 mps 691 mmHg 45%
    16:00 +30°C° 0 mm 1 mps 691 mmHg 49%
    17:00 +29°C° 0 mm 1 mps 691 mmHg 53%
    18:00 +25°C° 0 mm 0 mps 691 mmHg 57%
    19:00 +24°C° 0 mm 0 mps 692 mmHg 61%
    20:00 +25°C° 0 mm 1 mps 692 mmHg 67%
    21:00 +24°C° 0 mm 1 mps 692 mmHg 72%
    22:00 +23°C° 0 mm 1 mps 692 mmHg 77%
    23:00 +23°C° 0 mm 1 mps 692 mmHg 82%
    Mostrar más